This is the latest recevied weather packets stored in our database for station/object DB0WUN-13. If no packets are shown the sender has not sent any weather packets the latest 1 day(s).
| Time | Temp. | Humidity | Pressure | Rain* | Wind** | Luminosity | Snow |
|---|---|---|---|---|---|---|---|
| 1778059234 | 13.89° C | 77% | 1007.6 hPa | 0 mm | 0.89 m/s, 214° | 264 W/m² | - |
| 1778059174 | 13.89° C | 77% | 1007.7 hPa | 0 mm | 0.89 m/s, 214° | 313 W/m² | - |
| 1778059112 | 13.89° C | 77% | 1007.8 hPa | 0 mm | 0.89 m/s, 215° | 373 W/m² | - |
| 1778059053 | 13.89° C | 77% | 1007.8 hPa | 0 mm | 0.89 m/s, 180° | 373 W/m² | - |
| 1778058991 | 13.89° C | 78% | 1007.8 hPa | 0 mm | 0.89 m/s, 153° | 288 W/m² | - |
| 1778058937 | 13.89° C | 78% | 1007.8 hPa | 0 mm | 0.89 m/s, 152° | 288 W/m² | - |
| 1778058873 | 13.89° C | 78% | 1007.8 hPa | 0 mm | 0.89 m/s, 159° | 288 W/m² | - |
| 1778058811 | 13.89° C | 78% | 1007.7 hPa | 0 mm | 0.89 m/s, 208° | 429 W/m² | - |
| 1778058745 | 13.33° C | 78% | 1007.7 hPa | 0 mm | 0.89 m/s, 231° | 429 W/m² | - |
| 1778058683 | 13.33° C | 78% | 1007.7 hPa | 0 mm | 1.34 m/s, 230° | 429 W/m² | - |
| 1778058626 | 13.33° C | 78% | 1007.8 hPa | 0 mm | 1.34 m/s, 213° | 348 W/m² | - |
| 1778058563 | 13.33° C | 77% | 1007.8 hPa | 0 mm | 1.34 m/s, 164° | 258 W/m² | - |
| 1778058501 | 13.89° C | 77% | 1007.8 hPa | 0 mm | 1.34 m/s, 217° | 230 W/m² | - |
| 1778058437 | 13.89° C | 77% | 1007.8 hPa | 0 mm | 1.34 m/s, 215° | 176 W/m² | - |
| 1778058381 | 13.89° C | 78% | 1007.8 hPa | 0 mm | 0.89 m/s, 236° | 172 W/m² | - |
| 1778058331 | 13.33° C | 78% | 1007.7 hPa | 0 mm | 0.89 m/s, 192° | 176 W/m² | - |
| 1778058255 | 13.33° C | 78% | 1007.7 hPa | 0 mm | 0.89 m/s, 217° | 183 W/m² | - |
| 1778058193 | 13.33° C | 78% | 1007.7 hPa | 0 mm | 0.89 m/s, 242° | 199 W/m² | - |
| 1778058130 | 13.33° C | 79% | 1007.8 hPa | 0 mm | 0.89 m/s, 212° | 204 W/m² | - |
| 1778058073 | 13.33° C | 79% | 1007.8 hPa | 0 mm | 0.89 m/s, 134° | 209 W/m² | - |
| 1778058029 | 13.33° C | 78% | 1007.7 hPa | 0 mm | 0.45 m/s, 152° | 216 W/m² | - |
| 1778057950 | 13.33° C | 79% | 1007.7 hPa | 0 mm | 0.45 m/s, 160° | 962 W/m² | - |
| 1778057889 | 13.33° C | 78% | 1007.8 hPa | 0 mm | 0.45 m/s, 217° | 962 W/m² | - |
| 1778057829 | 13.33° C | 79% | 1007.8 hPa | 0 mm | 0.45 m/s, 217° | 265 W/m² | - |
| 1778057769 | 13.33° C | 78% | 1007.8 hPa | 0 mm | 0.45 m/s, 217° | 265 W/m² | - |
* Rain latest hour (hover to see other rain measurements)
** Current wind speed in m/s (hover to see current wind gust speed)